Location: Bégole
(43.1574°N, 0.3291°E)
Time: 03:07:05
(UTC+00:00)

Cosmos 1023 Rocket - Pass Details

Date: 28 January 2023
Orbit: 735 x 771 km, 74.1° (Epoch: 27 March)

Event Time Altitude Azimuth Distance (km) Brightness Sun altitude
Rises 18:12:22 0° 192° (SSW) 3,201 8.1 -12.4°
Reaches altitude 10° 18:14:45 10° 190° (S) 2,274 7.2 -12.8°
Maximum altitude 18:19:52 70° 107° (ESE) 798 4.4 -13.7°
Drops below altitude 10° 18:24:58 10° 25° (NNE) 2,267 6.6 -14.7°
Enters shadow 18:26:00 - 24° (NNE) 2,666 7.0 -14.8°
